Location: ?????????
(54.7630°N, 39.4991°E)
Time: 08:34:27
(UTC+00:00)

Okean 1 Rocket - Pass Details

Date: 14 April 2026
Orbit: 601 x 625 km, 82.5° (Epoch: 9 May)

Event Time Altitude Azimuth Distance (km) Brightness Sun altitude
Exits shadow 21:53:47 41° 293° (WNW) 881 3.9 -25.2°
Drops below altitude 10° 21:57:48 10° 1° (N) 1,968 6.7 -25.1°
Sets 22:00:09 0° 8° (N) 2,881 7.9 -25.1°
